This is the latest recevied weather packets stored in our database for station/object N2UFM. If no packets are shown the sender has not sent any weather packets the latest 10 day(s).
| Time | Temp. | Humidity | Pressure | Rain* | Wind** | Luminosity | Snow |
|---|---|---|---|---|---|---|---|
| 1777645553 | 13.89° C | 52% | 1014.6 hPa | 0 mm | - | - | - |
| 1777645253 | 14.44° C | 52% | 1014.6 hPa | 0 mm | - | - | - |
| 1777644953 | 13.89° C | 52% | 1014.6 hPa | 0 mm | - | - | - |
| 1777644653 | 13.89° C | 52% | 1014.5 hPa | 0 mm | - | - | - |
| 1777644352 | 13.89° C | 53% | 1014.6 hPa | 0 mm | - | - | - |
| 1777644052 | 13.89° C | 51% | 1014.6 hPa | 0 mm | - | - | - |
| 1777643752 | 13.89° C | 54% | 1014.7 hPa | 0 mm | - | - | - |
| 1777643452 | 13.33° C | 57% | 1014.7 hPa | 0 mm | - | - | - |
| 1777643152 | 13.33° C | 57% | 1014.7 hPa | 0 mm | - | - | - |
| 1777642851 | 13.33° C | 57% | 1014.7 hPa | 0 mm | - | - | - |
| 1777642551 | 12.78° C | 60% | 1014.7 hPa | 0 mm | - | - | - |
| 1777642251 | 12.22° C | 59% | 1014.8 hPa | 0 mm | - | - | - |
| 1777641951 | 12.78° C | 58% | 1014.9 hPa | 0 mm | - | - | - |
| 1777641651 | 13.33° C | 58% | 1014.9 hPa | 0 mm | - | - | - |
| 1777641351 | 12.78° C | 59% | 1014.9 hPa | 0 mm | - | - | - |
| 1777641051 | 12.78° C | 60% | 1015 hPa | 0 mm | - | - | - |
| 1777640750 | 12.22° C | 61% | 1014.9 hPa | 0 mm | - | - | - |
| 1777640450 | 12.78° C | 61% | 1015 hPa | 0 mm | - | - | - |
| 1777640150 | 12.78° C | 61% | 1015 hPa | 0 mm | - | - | - |
| 1777639850 | 12.22° C | 63% | 1015 hPa | 0 mm | - | - | - |
| 1777639550 | 11.67° C | 62% | 1014.9 hPa | 0 mm | - | - | - |
| 1777639249 | 11.67° C | 64% | 1015 hPa | 0 mm | - | - | - |
| 1777638949 | 12.22° C | 65% | 1015 hPa | 0 mm | - | - | - |
| 1777638649 | 11.67° C | 65% | 1015 hPa | 0 mm | - | - | - |
| 1777638349 | 11.67° C | 66% | 1015.1 hPa | 0 mm | - | - | - |
* Rain latest hour (hover to see other rain measurements)
** Current wind speed in m/s (hover to see current wind gust speed)